Volver al catálogo

FENGYUN 1C DEB

ActivoPO
NORAD 32192·DEBRIS·🇨🇳 China

Lanzado May 10, 1999 desde Taiyuan Satellite Launch Center

Loading…

Próximos Pases (próximas 24 horas)

TLE

ActualizadoSource: Space-Track

Época: Sep 13, 2026, 13:35 UTC

1 32192U 99025CUN 26256.56664536  .00000206  00000-0  19774-3 0  9993
2 32192  98.6195 109.8918 0181922 136.3802 225.1901 13.82696466965101

Sigue FENGYUN 1C DEB en tiempo real con AllMySat

Download on the App Store